Hourly Data Report for October 30, 2015

All times are specified in Local Standard Time (LST). Add 1 hour to adjust for Daylight Saving Time where and when it is observed.

HALL BEACH A
NUNAVUT

68°46'33.000" N
81°14'33.000" W
9.10 m
2402354
71293
YUX

Download Data

Hourly Data (October 2015)
Hourly Data Report for October 30, 2015
Temp Definition
°C
Dew Point Temp Definition
°C
Rel Hum Definition
%
Wind Dir Definition
10's deg

Wind Spd Definition
km/h
Visibility Definition
km
Stn Press Definition
kPa
Hmdx Definition


Wind Chill Definition


Weather Definition


TIME
00:00 Legend Double Dagger -11.7 -13.7 85 33 28 16.1 100.64   -21 Snow
01:00 Legend Double Dagger -12.3 -14.2 86 32 34 16.1 100.63   -23 Snow
02:00 Legend Double Dagger -13.4 -15.6 83 32 37 6.4 100.65   -25 Snow
03:00 Legend Double Dagger -14.8 -17.7 79 33 34 12.9 100.67   -26 Snow
04:00 Legend Double Dagger -15.7 -18.6 79 33 22 16.1 100.69   -25 LegendNANA
05:00 Legend Double Dagger -18.7 -21.5 79 31 24 16.1 100.69   -30 LegendNANA
06:00 Legend Double Dagger -19.4 -21.6 83 30 28 16.1 100.69   -31 LegendNANA
07:00 Legend Double Dagger -18.5 -20.9 82 31 32 16.1 100.71   -31 LegendNANA
08:00 Legend Double Dagger -15.9 -18.0 84 32 32 16.1 100.69   -28 LegendNANA
09:00 Legend Double Dagger -16.5 -19.0 81 32 32 16.1 100.70   -28 LegendNANA
10:00 Legend Double Dagger -17.4 -19.9 81 32 28 16.1 100.70   -29 LegendNANA
11:00 Legend Double Dagger -16.0 -18.6 81 31 18 16.1 100.72   -25 LegendNANA
12:00 Legend Double Dagger -16.9 -19.4 81 28 13 16.1 100.74   -25 LegendNANA
13:00 Legend Double Dagger -16.8 -19.3 82 27 5 16.1 100.76   -21 LegendNANA
14:00 Legend Double Dagger -19.7 -21.6 85 30 18 16.1 100.76   -30 LegendNANA
15:00 Legend Double Dagger -20.3 -22.3 84 32 24 16.1 100.79   -32 LegendNANA
16:00 Legend Double Dagger -19.3 -21.6 82 31 22 16.1 100.83   -30 LegendNANA
17:00 Legend Double Dagger -22.1 -24.3 83 30 21 16.1 100.85   -33 LegendNANA
18:00 Legend Double Dagger -21.1 -23.4 82 31 24 16.1 100.88   -33 LegendNANA
19:00 Legend Double Dagger -19.2 -21.8 80 30 24 16.1 100.90   -30 LegendNANA
20:00 Legend Double Dagger -19.6 -22.1 81 31 24 16.1 100.92   -31 LegendNANA
21:00 Legend Double Dagger -16.5 -19.6 77 29 17 16.1 100.92   -25 LegendNANA
22:00 Legend Double Dagger -19.2 -21.8 80 29 15 16.1 100.92   -28 LegendNANA
23:00 Legend Double Dagger -22.2 -24.5 82 28 18 16.1 100.93   -33 LegendNANA

Notes on Data Quality.

Legend

  • E = Estimated
  • M = Missing
  • NA = Not Available
  • ‡ = Partner data that is not subject to review by the National Climate Archives
Date modified: